TimeCST,TemperatureF,Dew PointF,Humidity,Sea Level PressureIn,VisibilityMPH,Wind Direction,Wind SpeedMPH,Gust SpeedMPH,PrecipitationIn,Events,Conditions,WindDirDegrees,DateUTC
12:53 AM,41.0,36.0,82,30.24,5.0,NW,5.8,-,N/A,,Haze,320,2013-11-22 06:53:00
1:16 AM,41.0,36.0,82,30.23,5.0,NNW,9.2,-,N/A,,Haze,340,2013-11-22 07:16:00
1:53 AM,41.0,36.0,82,30.25,5.0,NNW,8.1,-,N/A,,Haze,340,2013-11-22 07:53:00
2:53 AM,39.9,35.1,83,30.27,6.0,NNW,9.2,-,N/A,,Haze,340,2013-11-22 08:53:00
3:53 AM,39.0,36.0,89,30.29,4.0,NNW,15.0,20.7,0.01,Rain,Light Rain,340,2013-11-22 09:53:00
4:06 AM,39.0,36.0,89,30.28,3.0,North,9.2,-,0.01,Rain,Light Rain,350,2013-11-22 10:06:00
4:15 AM,37.9,36.0,93,30.28,2.5,North,17.3,23.0,0.01,Rain,Light Rain,360,2013-11-22 10:15:00
4:22 AM,37.0,35.1,93,30.28,4.0,North,16.1,-,0.01,Rain,Light Rain,360,2013-11-22 10:22:00
4:53 AM,36.0,34.0,93,30.31,7.0,North,16.1,24.2,0.02,Rain,Light Rain,10,2013-11-22 10:53:00
5:14 AM,35.1,32.0,89,30.30,6.0,North,18.4,27.6,0.01,Snow,Light Snow,360,2013-11-22 11:14:00
5:53 AM,35.1,33.1,92,30.33,10.0,NNW,12.7,-,0.01,,Overcast,340,2013-11-22 11:53:00
6:53 AM,34.0,30.0,85,30.37,10.0,North,15.0,-,0.00,,Overcast,350,2013-11-22 12:53:00
7:53 AM,33.1,30.0,89,30.41,2.5,NNW,10.4,-,0.00,Snow,Light Snow,340,2013-11-22 13:53:00
8:03 AM,33.1,28.9,85,30.39,5.0,NNW,15.0,-,0.00,Snow,Light Snow,340,2013-11-22 14:03:00
8:53 AM,32.0,28.0,85,30.43,6.0,North,15.0,19.6,0.00,Snow,Light Snow,350,2013-11-22 14:53:00
9:09 AM,32.0,27.0,82,30.42,10.0,North,12.7,20.7,0.00,,Overcast,350,2013-11-22 15:09:00
9:53 AM,32.0,26.1,79,30.46,10.0,NNW,15.0,-,0.00,,Overcast,340,2013-11-22 15:53:00
10:03 AM,33.1,26.1,75,30.44,10.0,NNW,15.0,-,N/A,,Mostly Cloudy,340,2013-11-22 16:03:00
10:27 AM,33.1,25.0,72,30.44,10.0,NNW,11.5,-,N/A,,Mostly Cloudy,340,2013-11-22 16:27:00
10:53 AM,34.0,26.1,73,30.45,10.0,North,18.4,21.9,N/A,,Mostly Cloudy,360,2013-11-22 16:53:00
11:53 AM,36.0,25.0,64,30.43,10.0,North,12.7,-,N/A,,Partly Cloudy,10,2013-11-22 17:53:00
12:53 PM,36.0,24.1,62,30.44,10.0,NW,9.2,-,N/A,,Mostly Cloudy,320,2013-11-22 18:53:00
1:10 PM,37.9,25.0,60,30.42,10.0,North,16.1,19.6,N/A,,Mostly Cloudy,350,2013-11-22 19:10:00
1:53 PM,37.9,23.0,55,30.45,10.0,North,11.5,-,N/A,,Partly Cloudy,10,2013-11-22 19:53:00
2:53 PM,37.0,21.9,54,30.47,10.0,NW,6.9,-,N/A,,Clear,310,2013-11-22 20:53:00
3:53 PM,36.0,21.0,55,30.48,10.0,NW,9.2,-,N/A,,Clear,310,2013-11-22 21:53:00
4:53 PM,33.1,21.9,64,30.49,10.0,WNW,6.9,-,N/A,,Clear,290,2013-11-22 22:53:00
5:53 PM,30.9,21.9,69,30.48,10.0,West,3.5,-,N/A,,Clear,270,2013-11-22 23:53:00
6:53 PM,30.0,21.9,72,30.47,10.0,WNW,4.6,-,N/A,,Clear,290,2013-11-23 00:53:00
7:53 PM,28.9,21.0,72,30.46,10.0,West,6.9,-,N/A,,Clear,270,2013-11-23 01:53:00
8:53 PM,28.0,19.9,72,30.45,10.0,West,8.1,-,N/A,,Clear,270,2013-11-23 02:53:00
9:53 PM,28.0,19.0,69,30.45,10.0,West,8.1,-,N/A,,Clear,270,2013-11-23 03:53:00
10:53 PM,27.0,18.0,69,30.45,10.0,West,8.1,-,N/A,,Clear,270,2013-11-23 04:53:00
11:53 PM,26.1,16.0,66,30.45,10.0,West,5.8,-,N/A,,Clear,270,2013-11-23 05:53:00